Seretse Khama, Botswana

3:59 AM CAT on December 12, 2017 (GMT +0200)
Seretse Khama

Weather History for FBSK - November, 2013

Change the Weather History Date:

Saturday, November 16, 2013

  Actual Average Record
Temperature  
Mean Temperature 84 °F -  
Max Temperature 96 °F 86 °F 100 °F (2005)
Min Temperature 71 °F 63 °F 32 °F (2003)
Cooling Degree Days 18    
Growing Degree Days 34 (Base 50)    
Moisture  
Dew Point 54 °F    
Average Humidity 45    
Maximum Humidity 83    
Minimum Humidity 14    
Precipitation  
Precipitation 0.00 in - - ()
Sea Level Pressure  
Sea Level Pressure 29.93 in    
Wind  
Wind Speed 8 mph ()    
Max Wind Speed 21 mph    
Max Gust Speed 36 mph    
Visibility 6.2 miles    
Events Rain , Thunderstorm    
Averages and records for this station are not official NWS values.
T = Trace of Precipitation, MM = Missing Value Source: Averaged Metar Reports

Daily Weather History Graph

Daily Weather History Graph

Search for Another Location

Airport or City:

Trip Planner

Search our weather history database for the weather conditions in past years. The results will help you decide how hot, cold, wet, or windy it might be!

Date:

Astronomy

Nov. 16, 2013 Rise Set
Actual Time 5:21 AM CAT 6:41 PM CAT
Civil Twilight 4:56 AM CAT 7:05 PM CAT
Nautical Twilight 4:27 AM CAT 7:34 PM CAT
Astronomical Twilight 3:57 AM CAT 8:05 PM CAT
Moon 5:45 PM CAT (11/16) 4:24 AM CAT (11/16)
Length of Visible Light 14h 08m
Length of Day
13h 19m
Waxing Gibbous, 99% of the Moon is Illuminated
Nov 16
Waxing Gibbous
Nov 17
Full
Nov 25
Last Quarter
Dec 3
New
Dec 9
First Quarter

Hourly Weather History & Observations

Time (CAT) Temp. Heat Index Dew Point Humidity Pressure Visibility Wind Dir Wind Speed Gust Speed Precip Events Conditions
12:00 AM 73.4 °F - 66.2 °F 78% 29.98 in 6.2 mi Variable 2.3 mph - N/A   Scattered Clouds
1:00 AM 71.6 °F - 66.2 °F 83% 29.95 in 6.2 mi South 9.2 mph - N/A Rain , Thunderstorm Light Thunderstorms and Rain
2:00 AM 71.6 °F - 66.2 °F 83% 29.95 in 6.2 mi WSW 6.9 mph - N/A   Mostly Cloudy
5:00 AM 71.6 °F - 66.2 °F 83% 29.95 in 6.2 mi West 3.5 mph - N/A   Mostly Cloudy
6:00 AM 73.4 °F - 64.4 °F 73% 29.98 in - East 4.6 mph - N/A   Clear
7:00 AM 73.4 °F - 64.4 °F 73% 29.98 in - ESE 8.1 mph - N/A   Clear
8:00 AM 78.8 °F - 55.4 °F 44% 29.98 in - East 11.5 mph - N/A   Clear
9:00 AM 84.2 °F - 41.0 °F 22% 29.98 in - ENE 17.3 mph - N/A   Clear
10:00 AM 87.8 °F - 41.0 °F 19% 29.98 in - NE 13.8 mph - N/A   Clear
11:00 AM 91.4 °F - 42.8 °F 18% 29.95 in - NNE 15.0 mph - N/A   Clear
12:00 PM 95.0 °F - 41.0 °F 15% 29.92 in - NNE 13.8 mph - N/A   Clear
1:00 PM 96.8 °F - 41.0 °F 15% 29.89 in 6.2 mi North 12.7 mph - N/A   Mostly Cloudy
2:00 PM 95.0 °F - 39.2 °F 14% 29.86 in 6.2 mi North 6.9 mph - N/A   Mostly Cloudy
4:00 PM 95.0 °F - 44.6 °F 18% 29.83 in 6.2 mi WNW 13.8 mph - N/A   Mostly Cloudy
5:00 PM 95.0 °F - 46.4 °F 19% 29.83 in 6.2 mi West 10.4 mph - N/A   Mostly Cloudy
6:00 PM 91.4 °F - 51.8 °F 26% 29.86 in 6.2 mi North 16.1 mph 28.8 mph N/A   Mostly Cloudy
7:00 PM 84.2 °F 83.0 °F 55.4 °F 37% 29.89 in 6.2 mi WSW 20.7 mph 35.7 mph N/A   Mostly Cloudy
9:00 PM 75.2 °F - 66.2 °F 73% 29.92 in 6.2 mi SSW 8.1 mph - N/A   Mostly Cloudy
11:00 PM 75.2 °F - 64.4 °F 69% 29.95 in - NNE 5.8 mph - N/A   Clear